[[{"header":{"parameterUnit":"m.s-1","parameterCategory":1,"la1":30.2992,"la2":30.254,"lo1":-89.0895,"lo2":-89.0443,"dy":0.0025,"dx":0.0025,"nx":19,"ny":19,"refTime":"2026-05-10T09:00:00:Z","depth":0,"parameterNumber":2,"parameterNumberName":"U-component_of_WINDS"},"data":[0,0,0,-3.0572,-3.0572,-3.0573,-3.0572,-3.0607,-3.0607,0,0,0,0,0,0,0,0,0,0,0,-3.059,-3.0591,-3.0572,-3.0572,-3.0573,-3.0572,-3.0606,-3.0607,0,0,0,0,0,0,0,0,0,0,0,-3.059,-3.0591,-3.0592,-3.0572,-3.0573,-3.0572,-3.0606,-3.0594,0,0,0,0,0,0,0,0,0,0,-3.0588,-3.0623,-3.0591,-3.0592,-3.0572,-3.0573,-3.0572,-3.0593,-3.0595,-3.062,0,-3.0646,0,-3.0627,-3.0611,-3.0612,0,0,0,-3.0559,-3.0622,-3.0605,-3.0592,-3.0573,-3.0573,-3.0569,-3.0594,-3.0596,-3.0623,-3.0646,-3.0647,-3.0628,-3.0612,-3.0612,-3.0799,-3.08,0,0,-3.0559,-3.0601,-3.0604,-3.0607,-3.0608,-3.0569,-3.0569,-3.0595,-3.0624,-3.0646,-3.0647,-3.0628,-3.0612,-3.0613,-3.0797,-3.0799,0,0,0,-3.0568,-3.0602,-3.0583,-3.0607,-3.0604,-3.0569,-3.0569,-3.0622,-3.0613,-3.0647,-3.0629,-3.0613,-3.0613,-3.0796,-3.0798,-3.0915,0,0,0,-3.0567,-3.0607,-3.0584,-3.061,-3.0604,-3.0613,-3.0597,-3.0611,-3.0613,-3.0629,-3.0613,-3.0614,-3.0794,-3.0797,-3.0908,-3.0964,0,0,0,-3.0584,-3.0608,-3.0615,-3.0612,-3.0613,-3.0612,-3.0603,-3.061,-3.0602,-3.0612,-3.0614,-3.0793,-3.0796,-3.0902,-3.0954,-3.1027,0,0,0,-3.0615,-3.0718,-3.0617,-3.0726,-3.0614,-3.0683,-3.0602,-3.0652,-3.0674,-3.0613,-3.0794,-3.0798,-3.09,-3.0947,-3.1021,-3.1098,-3.1134,0,0,-3.077,-3.0739,-3.0799,-3.0709,-3.0807,-3.0679,-3.0794,-3.0775,-3.0737,-3.0781,-3.0785,-3.091,-3.0953,-3.1026,-3.1313,-3.1342,0,0,0,-3.0863,-3.0907,-3.0924,-3.0946,-3.0932,-3.0926,-3.0884,-3.0877,-3.0911,-3.0768,-3.0953,-3.0978,-3.1019,-3.1054,-3.1078,-3.1112,-3.0815,-3.0815,-3.0814,-3.1145,-3.109,-3.1187,-3.1133,-3.1156,-3.1111,-3.1125,-3.1107,-3.1046,-3.1091,-3.1105,-3.1285,-3.1328,-3.1346,-3.1382,-3.1138,-3.1139,-3.1139,-3.114,-3.1369,-3.1425,-3.1339,-3.1403,-3.1345,-3.1399,-3.136,-3.1315,-3.1358,-3.127,-3.1304,-3.1216,-3.1379,-3.1408,-3.1148,-3.1146,-3.1145,-3.1145,-3.1144,-3.1551,-3.1568,-3.1555,-3.1582,-3.1609,-3.1549,-3.1595,-3.1539,-3.1488,-3.1521,-3.1531,-3.1529,-3.1522,-3.1529,-3.1529,-3.153,-3.1531,-3.1531,-3.1531,-3.1745,-3.1727,-3.1771,-3.1765,-3.1772,-3.1775,-3.173,-3.1736,-3.1729,-3.1686,-3.1686,-3.1622,-3.1404,-3.1352,-3.1541,-3.1539,-3.1538,-3.1537,-3.1537,-3.1998,-3.1932,-3.2,-3.2007,-3.1996,-3.2027,-3.1955,-3.1972,-3.1969,-3.1994,-3.1921,-3.1768,-3.1733,-3.1714,-3.1671,-3.1931,-3.1931,-3.1931,-3.1931,-3.2154,-3.2129,-3.2187,-3.2202,-3.2211,-3.2152,-3.2234,-3.22,-3.2155,-3.215,-3.2104,-3.2041,-3.2023,-3.1999,-3.1973,-3.1932,-3.2253,-3.2254,-3.2254,-3.2308,-3.2281,-3.2361,-3.2314,-3.23,-3.2291,-3.2366,-3.2389,-3.2324,-3.2266,-3.2146,-3.2132,-3.203,-3.1999,-3.1942,-3.1903,-3.1827,0,0]},{"header":{"parameterUnit":"m.s-1","parameterCategory":1,"la1":30.2992,"la2":30.254,"lo1":-89.0895,"lo2":-89.0443,"dy":0.0025,"dx":0.0025,"nx":19,"ny":19,"refTime":"2026-05-10T09:00:00:Z","depth":0,"parameterNumber":3,"parameterNumberName":"V-component_of_WINDS"},"data":[0,0,0,-3.2914,-3.2916,-3.2993,-3.2993,-3.3094,-3.3095,0,0,0,0,0,0,0,0,0,0,0,-3.2895,-3.2895,-3.2914,-3.2916,-3.2993,-3.2993,-3.3094,-3.3095,0,0,0,0,0,0,0,0,0,0,0,-3.2894,-3.2895,-3.2896,-3.2916,-3.2993,-3.2993,-3.3093,-3.3034,0,0,0,0,0,0,0,0,0,0,-3.2958,-3.2945,-3.2895,-3.2896,-3.2917,-3.2993,-3.2993,-3.3031,-3.3038,-3.306,0,-3.3083,0,-3.3091,-3.3102,-3.3102,0,0,0,-3.2913,-3.2939,-3.2957,-3.2896,-3.2917,-3.2993,-3.2957,-3.3035,-3.3042,-3.3069,-3.3085,-3.3088,-3.3093,-3.3102,-3.3103,-3.3249,-3.325,0,0,-3.2908,-3.291,-3.2952,-3.2962,-3.2953,-3.2955,-3.296,-3.3039,-3.3056,-3.3085,-3.3091,-3.3094,-3.3103,-3.3104,-3.3248,-3.3249,0,0,0,-3.2898,-3.2907,-3.2923,-3.2958,-3.2972,-3.2957,-3.2963,-3.3052,-3.3057,-3.3092,-3.3095,-3.3104,-3.3105,-3.3247,-3.3248,-3.3292,0,0,0,-3.2896,-3.2901,-3.2921,-3.2923,-3.2971,-3.3014,-3.2974,-3.3052,-3.3061,-3.3095,-3.3104,-3.3106,-3.3246,-3.3248,-3.3289,-3.3313,0,0,0,-3.2888,-3.29,-3.2913,-3.2923,-3.2956,-3.3012,-3.3022,-3.3054,-3.3063,-3.3102,-3.3106,-3.3246,-3.3248,-3.3286,-3.3308,-3.3352,0,0,0,-3.288,-3.295,-3.2914,-3.2992,-3.2956,-3.3039,-3.3021,-3.3083,-3.3122,-3.3104,-3.3246,-3.3248,-3.3285,-3.3305,-3.3349,-3.339,-3.3407,0,0,-3.2969,-3.2961,-3.3007,-3.2976,-3.3067,-3.3027,-3.3123,-3.3156,-3.3157,-3.3218,-3.3221,-3.329,-3.3308,-3.3351,-3.3501,-3.3515,0,0,0,-3.3035,-3.3068,-3.3092,-3.313,-3.3158,-3.3183,-3.3201,-3.3213,-3.3265,-3.319,-3.3317,-3.3328,-3.3353,-3.3373,-3.3384,-3.3406,-3.3257,-3.3257,-3.3257,-3.3163,-3.3162,-3.3238,-3.3245,-3.3282,-3.33,-3.3329,-3.3347,-3.3335,-3.3365,-3.3383,-3.3474,-3.3497,-3.3506,-3.3528,-3.3404,-3.3404,-3.3404,-3.3404,-3.3293,-3.334,-3.3321,-3.3388,-3.3385,-3.344,-3.3459,-3.3448,-3.3498,-3.346,-3.3483,-3.3443,-3.3521,-3.354,-3.3407,-3.3407,-3.3406,-3.3406,-3.3406,-3.3377,-3.34,-3.3414,-3.3468,-3.3509,-3.3513,-3.3562,-3.3557,-3.3552,-3.3574,-3.3592,-3.3592,-3.3591,-3.3583,-3.3583,-3.3583,-3.3584,-3.3584,-3.3584,-3.346,-3.3474,-3.3517,-3.3552,-3.3575,-3.3605,-3.3622,-3.3644,-3.3666,-3.3658,-3.3659,-3.3642,-3.3529,-3.3501,-3.3589,-3.3588,-3.3588,-3.3587,-3.3587,-3.3594,-3.3562,-3.3629,-3.3653,-3.3692,-3.3732,-3.3725,-3.3769,-3.3786,-3.381,-3.3789,-3.3705,-3.3696,-3.3687,-3.3664,-3.3789,-3.3789,-3.3789,-3.3789,-3.3666,-3.366,-3.3727,-3.3764,-3.38,-3.38,-3.3873,-3.3886,-3.3894,-3.3904,-3.3884,-3.3853,-3.3844,-3.384,-3.3827,-3.3806,-3.3964,-3.3964,-3.3965,-3.3748,-3.3746,-3.3811,-3.382,-3.385,-3.3875,-3.3943,-3.3984,-3.3987,-3.3971,-3.3911,-3.3904,-3.3853,-3.3836,-3.3821,-3.3802,-3.3762,0,0]}]]